Time,TemperatureF,DewpointF,PressureIn,WindDirection,WindDirectionDegrees,WindSpeedMPH,WindSpeedGustMPH,Humidity,HourlyPrecipIn,Conditions,Clouds,dailyrainin,SolarRadiationWatts/m^2,SoftwareType,DateUTC
2013-03-13 00:12:00,60.0,49.0,30.07,SSW,207,1.0,2.0,67,-99.99,,,-99.99,0.000000,,2013-03-13 07:12:00,
2013-03-13 00:22:00,60.0,49.0,30.07,SSW,207,1.0,2.0,67,-99.99,,,-99.99,0.000000,,2013-03-13 07:22:00,
2013-03-13 00:32:00,60.0,49.0,30.07,SSW,207,1.0,2.0,67,-99.99,,,-99.99,0.000000,,2013-03-13 07:32:00,
2013-03-13 00:42:00,60.0,49.0,30.07,SSW,207,1.0,2.0,67,-99.99,,,-99.99,0.000000,,2013-03-13 07:42:00,
2013-03-13 01:22:00,59.0,50.0,30.07,SSE,161,2.0,3.0,72,-99.99,,,-99.99,0.000000,,2013-03-13 08:22:00,
2013-03-13 01:32:00,59.0,50.0,30.07,SSE,161,2.0,3.0,72,-99.99,,,-99.99,0.000000,,2013-03-13 08:32:00,
2013-03-13 01:42:00,59.0,50.0,30.07,SSE,161,2.0,3.0,72,-99.99,,,-99.99,0.000000,,2013-03-13 08:42:00,
2013-03-13 01:52:00,59.0,50.0,30.07,SSE,161,2.0,3.0,72,-99.99,,,-99.99,0.000000,,2013-03-13 08:52:00,
2013-03-13 02:12:00,57.0,50.0,30.08,SE,127,1.0,3.0,76,-99.99,,,-99.99,0.000000,,2013-03-13 09:12:00,
2013-03-13 02:22:00,57.0,50.0,30.08,SE,127,1.0,3.0,76,-99.99,,,-99.99,0.000000,,2013-03-13 09:22:00,
2013-03-13 02:32:00,57.0,50.0,30.08,SE,127,1.0,3.0,76,-99.99,,,-99.99,0.000000,,2013-03-13 09:32:00,
2013-03-13 02:42:00,57.0,50.0,30.08,SE,127,1.0,3.0,76,-99.99,,,-99.99,0.000000,,2013-03-13 09:42:00,
2013-03-13 02:52:00,57.0,50.0,30.08,SE,127,1.0,3.0,76,-99.99,,,-99.99,0.000000,,2013-03-13 09:52:00,
2013-03-13 03:11:00,55.0,49.0,30.08,East,86,0.0,2.0,79,-99.99,,,-99.99,0.000000,,2013-03-13 10:11:00,
2013-03-13 03:22:00,55.0,49.0,30.08,East,86,0.0,2.0,79,-99.99,,,-99.99,0.000000,,2013-03-13 10:22:00,
2013-03-13 03:32:00,55.0,49.0,30.08,East,86,0.0,2.0,79,-99.99,,,-99.99,0.000000,,2013-03-13 10:32:00,
2013-03-13 03:42:00,55.0,49.0,30.08,East,86,0.0,2.0,79,-99.99,,,-99.99,0.000000,,2013-03-13 10:42:00,
2013-03-13 03:52:00,55.0,49.0,30.08,East,86,0.0,2.0,79,-99.99,,,-99.99,0.000000,,2013-03-13 10:52:00,
2013-03-13 04:12:00,54.0,49.0,30.08,SE,142,0.0,3.0,82,-99.99,,,-99.99,0.000000,,2013-03-13 11:12:00,
2013-03-13 04:22:00,54.0,49.0,30.08,SE,142,0.0,3.0,82,-99.99,,,-99.99,0.000000,,2013-03-13 11:22:00,
2013-03-13 04:32:00,54.0,49.0,30.08,SE,142,0.0,3.0,82,-99.99,,,-99.99,0.000000,,2013-03-13 11:32:00,
2013-03-13 04:42:00,54.0,49.0,30.08,SE,142,0.0,3.0,82,-99.99,,,-99.99,0.000000,,2013-03-13 11:42:00,
2013-03-13 04:52:00,54.0,49.0,30.08,SE,142,0.0,3.0,82,-99.99,,,-99.99,0.000000,,2013-03-13 11:52:00,
2013-03-13 05:12:00,52.0,48.0,30.09,West,274,0.0,2.0,85,-99.99,,,-99.99,0.000000,,2013-03-13 12:12:00,
2013-03-13 05:22:00,52.0,48.0,30.09,West,274,0.0,2.0,85,-99.99,,,-99.99,0.000000,,2013-03-13 12:22:00,
2013-03-13 05:32:00,52.0,48.0,30.09,West,274,0.0,2.0,85,-99.99,,,-99.99,0.000000,,2013-03-13 12:32:00,
2013-03-13 05:42:00,52.0,48.0,30.09,West,274,0.0,2.0,85,-99.99,,,-99.99,0.000000,,2013-03-13 12:42:00,
2013-03-13 06:22:00,52.0,48.0,30.10,SSE,167,2.0,3.0,86,-99.99,,,-99.99,0.000000,,2013-03-13 13:22:00,
2013-03-13 06:32:00,52.0,48.0,30.10,SSE,167,2.0,3.0,86,-99.99,,,-99.99,0.000000,,2013-03-13 13:32:00,
2013-03-13 06:42:00,52.0,48.0,30.10,SSE,167,2.0,3.0,86,-99.99,,,-99.99,0.000000,,2013-03-13 13:42:00,
2013-03-13 06:52:00,52.0,48.0,30.10,SSE,167,2.0,3.0,86,-99.99,,,-99.99,0.000000,,2013-03-13 13:52:00,
2013-03-13 07:12:00,51.0,48.0,30.10,WNW,301,1.0,2.0,91,-99.99,,,-99.99,0.000000,,2013-03-13 14:12:00,
2013-03-13 07:21:00,51.0,48.0,30.10,WNW,301,1.0,2.0,91,-99.99,,,-99.99,0.000000,,2013-03-13 14:21:00,
2013-03-13 07:33:00,51.0,48.0,30.10,WNW,301,1.0,2.0,91,-99.99,,,-99.99,0.000000,,2013-03-13 14:33:00,
2013-03-13 07:42:00,51.0,48.0,30.10,WNW,301,1.0,2.0,91,-99.99,,,-99.99,0.000000,,2013-03-13 14:42:00,
2013-03-13 07:52:00,51.0,48.0,30.10,WNW,301,1.0,2.0,91,-99.99,,,-99.99,0.000000,,2013-03-13 14:52:00,
2013-03-13 08:12:00,52.0,49.0,30.11,SSW,213,0.0,2.0,90,-99.99,,,-99.99,14.000000,,2013-03-13 15:12:00,
2013-03-13 08:22:00,52.0,49.0,30.11,SSW,213,0.0,2.0,90,-99.99,,,-99.99,14.000000,,2013-03-13 15:22:00,
2013-03-13 08:32:00,52.0,49.0,30.11,SSW,213,0.0,2.0,90,-99.99,,,-99.99,14.000000,,2013-03-13 15:32:00,
2013-03-13 08:42:00,52.0,49.0,30.11,SSW,213,0.0,2.0,90,-99.99,,,-99.99,14.000000,,2013-03-13 15:42:00,
2013-03-13 08:52:00,52.0,49.0,30.11,SSW,213,0.0,2.0,90,-99.99,,,-99.99,14.000000,,2013-03-13 15:52:00,
2013-03-13 09:22:00,60.0,51.0,30.12,SW,223,1.0,5.0,73,-99.99,,,-99.99,183.000000,,2013-03-13 16:22:00,
2013-03-13 09:42:00,60.0,51.0,30.12,SW,223,1.0,5.0,73,-99.99,,,-99.99,183.000000,,2013-03-13 16:42:00,
2013-03-13 09:52:00,60.0,51.0,30.12,SW,223,1.0,5.0,73,-99.99,,,-99.99,183.000000,,2013-03-13 16:52:00,
2013-03-13 10:12:00,64.0,51.0,30.12,NE,43,2.0,5.0,62,-99.99,,,-99.99,358.000000,,2013-03-13 17:12:00,
2013-03-13 10:22:00,64.0,51.0,30.12,NE,43,2.0,5.0,62,-99.99,,,-99.99,358.000000,,2013-03-13 17:22:00,
2013-03-13 10:32:00,64.0,51.0,30.12,NE,43,2.0,5.0,62,-99.99,,,-99.99,358.000000,,2013-03-13 17:32:00,
2013-03-13 10:42:00,64.0,51.0,30.12,NE,43,2.0,5.0,62,-99.99,,,-99.99,358.000000,,2013-03-13 17:42:00,
2013-03-13 10:52:00,64.0,51.0,30.12,NE,43,2.0,5.0,62,-99.99,,,-99.99,358.000000,,2013-03-13 17:52:00,
2013-03-13 11:22:00,66.0,50.0,30.13,NNW,338,4.0,7.0,57,-99.99,,,-99.99,519.000000,,2013-03-13 18:22:00,
2013-03-13 11:33:00,66.0,50.0,30.13,NNW,338,4.0,7.0,57,-99.99,,,-99.99,519.000000,,2013-03-13 18:33:00,
2013-03-13 11:42:00,66.0,50.0,30.13,NNW,338,4.0,7.0,57,-99.99,,,-99.99,519.000000,,2013-03-13 18:42:00,
2013-03-13 11:51:00,66.0,50.0,30.13,NNW,338,4.0,7.0,57,-99.99,,,-99.99,519.000000,,2013-03-13 18:51:00,
2013-03-13 12:22:00,69.0,50.0,30.13,NNW,327,3.0,7.0,51,-99.99,,,-99.99,607.000000,,2013-03-13 19:22:00,
2013-03-13 12:32:00,69.0,50.0,30.13,NNW,327,3.0,7.0,51,-99.99,,,-99.99,607.000000,,2013-03-13 19:32:00,
2013-03-13 12:42:00,69.0,50.0,30.13,NNW,327,3.0,7.0,51,-99.99,,,-99.99,607.000000,,2013-03-13 19:42:00,
2013-03-13 12:52:00,69.0,50.0,30.13,NNW,327,3.0,7.0,51,-99.99,,,-99.99,607.000000,,2013-03-13 19:52:00,
2013-03-13 13:22:00,73.0,51.0,30.10,NW,320,5.0,10.0,46,-99.99,,,-99.99,659.000000,,2013-03-13 20:22:00,
2013-03-13 13:32:00,73.0,51.0,30.10,NW,320,5.0,10.0,46,-99.99,,,-99.99,659.000000,,2013-03-13 20:32:00,
2013-03-13 13:41:00,73.0,51.0,30.10,NW,320,5.0,10.0,46,-99.99,,,-99.99,659.000000,,2013-03-13 20:41:00,
2013-03-13 13:52:00,73.0,51.0,30.10,NW,320,5.0,10.0,46,-99.99,,,-99.99,659.000000,,2013-03-13 20:52:00,
2013-03-13 14:12:00,75.0,51.0,30.08,NW,323,3.0,9.0,43,-99.99,,,-99.99,620.000000,,2013-03-13 21:12:00,
2013-03-13 14:22:00,75.0,51.0,30.08,NW,323,3.0,9.0,43,-99.99,,,-99.99,620.000000,,2013-03-13 21:22:00,
2013-03-13 14:32:00,75.0,51.0,30.08,NW,323,3.0,9.0,43,-99.99,,,-99.99,620.000000,,2013-03-13 21:32:00,
2013-03-13 14:42:00,75.0,51.0,30.08,NW,323,3.0,9.0,43,-99.99,,,-99.99,620.000000,,2013-03-13 21:42:00,
2013-03-13 14:51:00,75.0,51.0,30.08,NW,323,3.0,9.0,43,-99.99,,,-99.99,620.000000,,2013-03-13 21:51:00,
2013-03-13 15:22:00,76.0,50.0,30.06,NW,319,6.0,12.0,40,-99.99,,,-99.99,741.000000,,2013-03-13 22:22:00,
2013-03-13 15:32:00,76.0,50.0,30.06,NW,319,6.0,12.0,40,-99.99,,,-99.99,741.000000,,2013-03-13 22:32:00,
2013-03-13 15:42:00,76.0,50.0,30.06,NW,319,6.0,12.0,40,-99.99,,,-99.99,741.000000,,2013-03-13 22:42:00,
2013-03-13 15:52:00,76.0,50.0,30.06,NW,319,6.0,12.0,40,-99.99,,,-99.99,741.000000,,2013-03-13 22:52:00,
2013-03-13 16:12:00,78.0,50.0,30.05,NW,318,5.0,11.0,37,-99.99,,,-99.99,595.000000,,2013-03-13 23:12:00,
2013-03-13 16:22:00,78.0,50.0,30.05,NW,318,5.0,11.0,37,-99.99,,,-99.99,595.000000,,2013-03-13 23:22:00,
2013-03-13 16:32:00,78.0,50.0,30.05,NW,318,5.0,11.0,37,-99.99,,,-99.99,595.000000,,2013-03-13 23:32:00,
2013-03-13 16:42:00,78.0,50.0,30.05,NW,318,5.0,11.0,37,-99.99,,,-99.99,595.000000,,2013-03-13 23:42:00,
2013-03-13 16:51:00,78.0,50.0,30.05,NW,318,5.0,11.0,37,-99.99,,,-99.99,595.000000,,2013-03-13 23:51:00,
2013-03-13 17:22:00,79.0,49.0,30.04,North,9,4.0,10.0,35,-99.99,,,-99.99,493.000000,,2013-03-14 00:22:00,
2013-03-13 17:32:00,79.0,49.0,30.04,North,9,4.0,10.0,35,-99.99,,,-99.99,493.000000,,2013-03-14 00:32:00,
2013-03-13 17:42:00,79.0,49.0,30.04,North,9,4.0,10.0,35,-99.99,,,-99.99,493.000000,,2013-03-14 00:42:00,
2013-03-13 17:52:00,79.0,49.0,30.04,North,9,4.0,10.0,35,-99.99,,,-99.99,493.000000,,2013-03-14 00:52:00,
2013-03-13 18:22:00,79.0,49.0,30.02,ENE,72,3.0,9.0,35,-99.99,,,-99.99,303.000000,,2013-03-14 01:22:00,
2013-03-13 18:32:00,79.0,49.0,30.02,ENE,72,3.0,9.0,35,-99.99,,,-99.99,303.000000,,2013-03-14 01:32:00,
2013-03-13 18:42:00,79.0,49.0,30.02,ENE,72,3.0,9.0,35,-99.99,,,-99.99,303.000000,,2013-03-14 01:42:00,
2013-03-13 18:52:00,79.0,49.0,30.02,ENE,72,3.0,9.0,35,-99.99,,,-99.99,303.000000,,2013-03-14 01:52:00,
2013-03-13 19:22:00,76.0,49.0,30.02,East,82,2.0,7.0,38,-99.99,,,-99.99,64.000000,,2013-03-14 02:22:00,
2013-03-13 19:42:00,76.0,49.0,30.02,East,82,2.0,7.0,38,-99.99,,,-99.99,64.000000,,2013-03-14 02:42:00,
2013-03-13 19:51:00,76.0,49.0,30.02,East,82,2.0,7.0,38,-99.99,,,-99.99,64.000000,,2013-03-14 02:51:00,
2013-03-13 20:12:00,72.0,50.0,30.01,SE,135,1.0,3.0,46,-99.99,,,-99.99,3.000000,,2013-03-14 03:12:00,
2013-03-13 20:22:00,72.0,50.0,30.01,SE,135,1.0,3.0,46,-99.99,,,-99.99,3.000000,,2013-03-14 03:22:00,
2013-03-13 20:32:00,72.0,50.0,30.01,SE,135,1.0,3.0,46,-99.99,,,-99.99,3.000000,,2013-03-14 03:32:00,
2013-03-13 20:42:00,72.0,50.0,30.01,SE,135,1.0,3.0,46,-99.99,,,-99.99,3.000000,,2013-03-14 03:42:00,
2013-03-13 20:52:00,72.0,50.0,30.01,SE,135,1.0,3.0,46,-99.99,,,-99.99,3.000000,,2013-03-14 03:52:00,
2013-03-13 21:22:00,68.0,51.0,30.02,SE,127,0.0,0.0,54,-99.99,,,-99.99,0.000000,,2013-03-14 04:22:00,
2013-03-13 21:32:00,68.0,51.0,30.02,SE,127,0.0,0.0,54,-99.99,,,-99.99,0.000000,,2013-03-14 04:32:00,
2013-03-13 21:42:00,68.0,51.0,30.02,SE,127,0.0,0.0,54,-99.99,,,-99.99,0.000000,,2013-03-14 04:42:00,
2013-03-13 21:52:00,68.0,51.0,30.02,SE,127,0.0,0.0,54,-99.99,,,-99.99,0.000000,,2013-03-14 04:52:00,
2013-03-13 22:22:00,65.0,50.0,30.03,NW,313,2.0,2.0,58,-99.99,,,-99.99,0.000000,,2013-03-14 05:22:00,
2013-03-13 22:33:00,65.0,50.0,30.03,NW,313,2.0,2.0,58,-99.99,,,-99.99,0.000000,,2013-03-14 05:33:00,
2013-03-13 22:42:00,65.0,50.0,30.03,NW,313,2.0,2.0,58,-99.99,,,-99.99,0.000000,,2013-03-14 05:42:00,
2013-03-13 22:52:00,65.0,50.0,30.03,NW,313,2.0,2.0,58,-99.99,,,-99.99,0.000000,,2013-03-14 05:52:00,
2013-03-13 23:12:00,64.0,50.0,30.04,SW,233,1.0,3.0,61,-99.99,,,-99.99,0.000000,,2013-03-14 06:12:00,
2013-03-13 23:22:00,64.0,50.0,30.04,SW,233,1.0,3.0,61,-99.99,,,-99.99,0.000000,,2013-03-14 06:22:00,
2013-03-13 23:32:00,64.0,50.0,30.04,SW,233,1.0,3.0,61,-99.99,,,-99.99,0.000000,,2013-03-14 06:32:00,
2013-03-13 23:42:00,64.0,50.0,30.04,SW,233,1.0,3.0,61,-99.99,,,-99.99,0.000000,,2013-03-14 06:42:00,
2013-03-13 23:52:00,64.0,50.0,30.04,SW,233,1.0,3.0,61,-99.99,,,-99.99,0.000000,,2013-03-14 06:52:00,